User: anonymous   Login
Location: Unspecified
(0.0000°N, 0.0000°E)
Time: 21:40:32
(UTC+00:00)
Language:

RESURS DK-1 - Orbit

View from above orbital plane
View from above orbital plane
View from above satellite
View from above satellite

Ground track
Ground track

The orbit data is extracted from the following two-line orbital elements,

1 29228U 06021A   17233.49821816  .00000153  00000-0  19040-4 0  9994
2 29228  69.9354 291.9115 0007569 253.2928 106.7402 15.02185333617901
Epoch (UTC): 21 August 2017 11:57:26
Eccentricity: 0.0007569
inclination: 69.9354°
perigee height: 555 km
apogee height: 565 km
right ascension of ascending node: 291.9115°
argument of perigee: 253.2928°
revolutions per day: 15.02185333
mean anomaly at epoch: 106.7402°
orbit number at epoch: 61790

The dashed part of the orbit path shows where the satellite is in the earth's shadow,  

DLR